GFSNIL_sfc_dewp_108.txt.gz
Dewpoint
59 60 59 59 59 59 59 60 60 60 61 60 60 60 60 59 59 59 59 58 59 58
59 60 60 60 60 60 60 60 60 60 59 60 60 60 59 59 58 59 59 59 58 58
54 55 55 56 56 58 59 59 59 59 59 59 59 59 59 59 59 59 59 59 58 58
50 50 50 50 51 52 53 54 55 56 58 59 59 59 59 59 59 59 59 59 58 58
46 46 47 47 48 48 48 48 50 51 52 52 53 53 55 57 58 58 58 58 58 58
42 42 43 44 44 45 44 44 44 45 45 46 47 48 49 49 51 52 54 55 55 55
40 41 41 42 42 42 42 43 43 43 43 44 44 44 45 45 45 46 47 48 50 52
39 40 40 40 40 40 40 40 41 41 41 42 42 43 44 44 43 43 44 44 45 48
35 37 38 39 39 39 39 38 39 39 39 39 40 43 45 45 43 43 42 42 42 43
34 34 36 37 36 36 36 36 36 37 38 38 38 41 42 44 42 41 40 40 40 40
34 33 33 34 34 34 35 34 34 35 35 35 34 38 40 41 40 40 39 40 40 40
32 31 30 30 32 33 33 32 33 34 33 32 32 35 36 38 38 38 38 37 40 40
30 30 28 29 31 32 32 32 32 32 31 31 29 34 36 35 33 34 34 34 35 40
28 29 29 29 29 30 29 29 28 28 28 27 30 32 34 35 33 32 32 33 36 38

GFSNIL_sfc_dewp_114.txt.gz
Dewpoint
57 57 57 58 58 58 59 60 60 60 61 61 61 62 62 61 60 61 60 60 59 58
57 58 58 57 57 58 59 60 60 61 61 61 61 61 61 60 60 60 60 60 59 59
52 53 54 53 53 55 54 56 59 60 60 60 59 59 59 59 59 59 59 58 58 58
48 48 49 48 48 49 50 50 50 51 51 51 51 52 53 53 54 57 57 58 58 58
45 45 45 46 46 46 46 47 47 47 46 46 47 47 48 48 49 49 49 51 52 52
42 42 42 42 42 41 40 40 40 40 41 42 44 44 44 45 45 45 46 46 47 48
38 38 38 37 33 35 33 33 32 32 33 36 38 38 39 41 41 42 44 45 45 45
32 31 30 28 28 28 28 29 29 28 28 27 29 33 35 36 37 36 36 37 39 42
28 28 29 28 27 26 26 26 26 26 25 25 22 34 35 35 33 33 34 35 36 36
25 26 28 26 26 26 25 25 26 25 24 23 23 31 32 33 32 33 34 34 32 32
25 25 26 26 26 26 25 26 27 24 23 23 21 29 31 32 28 31 31 30 30 29
23 23 24 24 25 25 24 25 25 24 24 24 23 29 31 31 28 27 25 23 23 26
23 23 25 26 25 26 25 24 24 24 25 26 24 27 30 30 26 24 24 24 24 28
22 23 24 25 25 26 25 25 24 23 23 23 24 24 29 30 26 25 25 24 24 24

GFSNIL_sfc_dewp_120.txt.gz
Dewpoint
47 49 49 51 53 56 56 58 59 61 62 62 62 62 62 62 61 62 62 61 61 60
51 52 52 52 52 54 54 57 57 58 60 59 59 60 60 60 60 61 60 59 59 59
47 48 48 48 48 49 49 50 51 53 52 52 52 55 56 55 54 57 55 54 56 58
44 44 44 44 44 44 44 46 47 47 47 47 47 48 48 49 49 49 49 49 49 49
40 39 39 38 38 38 38 38 41 43 43 42 42 43 44 45 46 46 45 46 46 47
37 36 37 37 37 36 35 34 33 35 36 37 38 38 38 39 39 41 43 44 44 45
35 35 34 33 34 36 36 34 32 29 29 31 33 35 36 37 37 34 35 37 38 39
33 34 34 33 31 30 33 35 34 33 32 31 32 33 34 32 37 36 36 36 34 35
31 31 33 33 33 32 32 29 31 31 32 33 32 35 35 34 32 32 32 32 31 30
27 30 31 32 31 31 31 30 27 27 26 27 29 33 33 32 30 32 29 28 28 26
25 25 26 27 26 26 26 27 27 27 27 27 27 31 32 31 30 30 29 27 27 26
24 24 26 26 26 27 26 27 27 27 27 26 26 29 31 30 29 26 26 25 25 25
24 24 25 25 26 26 25 25 25 25 25 24 24 28 29 29 27 26 27 26 25 30
22 21 23 23 24 24 23 23 24 23 22 21 22 23 28 30 26 27 26 27 27 28

GFSNIL_sfc_dewp_126.txt.gz
Dewpoint
47 49 49 50 51 50 51 52 52 53 53 54 57 58 59 59 61 61 62 62 61 61
43 44 45 46 47 48 48 49 50 51 51 51 52 55 59 58 58 58 55 54 59 57
39 39 39 39 39 41 43 45 45 45 46 46 48 49 50 51 50 51 51 51 50 50
37 37 37 37 37 36 37 39 39 39 40 41 42 45 46 46 46 46 47 46 44 43
36 36 35 36 36 35 35 34 37 38 37 36 37 40 40 42 42 42 42 40 39 41
37 37 36 35 35 34 34 34 34 33 34 34 34 35 38 37 38 39 39 38 39 39
36 36 36 35 34 34 33 32 34 33 34 34 34 34 35 35 36 36 36 36 36 36
32 32 33 33 33 32 32 32 33 32 33 34 34 34 34 35 34 34 33 34 33 35
30 30 31 32 32 32 32 31 31 33 33 34 34 36 35 34 32 31 30 31 32 33
26 28 28 28 27 28 29 30 30 30 31 30 31 34 34 33 32 31 30 30 29 27
24 25 26 26 25 25 26 26 27 28 28 28 30 33 32 31 30 30 29 28 28 26
23 25 24 24 24 24 24 24 25 25 25 24 27 32 30 29 29 28 27 28 29 29
24 23 22 23 23 23 23 22 23 23 24 25 23 30 31 28 26 27 26 27 27 31
21 21 20 21 22 21 20 21 20 21 21 22 23 26 31 31 28 28 27 27 27 28

GFSNIL_sfc_dewp_129.txt.gz
Dewpoint
41 43 43 43 45 47 47 49 50 51 51 52 53 53 54 57 58 58 58 59 60 60
39 40 40 39 40 41 42 44 44 45 46 46 48 50 52 54 57 56 55 53 53 55
38 38 38 38 37 36 37 40 40 39 40 42 43 45 47 49 49 50 50 49 48 48
37 37 37 37 36 36 36 36 37 38 38 38 39 40 42 43 44 44 42 43 44 42
36 36 36 35 35 35 35 36 36 36 36 36 37 39 39 39 40 40 40 41 41 41
35 35 35 35 35 34 33 34 34 34 34 34 35 35 37 38 38 37 38 39 38 38
31 32 33 33 33 33 33 32 33 32 34 34 35 34 35 36 35 35 36 36 37 36
30 31 31 31 32 32 32 32 33 33 33 34 34 33 34 33 32 32 33 34 33 34
29 29 30 29 29 30 30 30 30 32 32 33 34 34 34 33 32 31 31 32 33 32
25 27 27 26 25 25 26 27 28 28 29 30 32 33 32 32 30 30 29 29 29 25
24 25 25 25 24 23 24 25 25 26 27 27 30 32 31 31 30 30 30 30 27 28
23 24 23 23 23 23 22 22 23 24 24 24 27 31 30 29 28 27 28 27 29 29
23 23 21 22 23 22 21 21 22 22 23 25 23 30 32 30 28 26 27 27 27 31
21 21 19 20 21 21 20 21 21 22 22 23 27 27 30 30 28 28 27 27 26 27